Station MGZP4 - 9759394 - Mayaguez, PR Image indicating link to RSS feed of recent meteorological observations for station MGZP4


Conditions at MGZP4 as of
(8:18 am AST)
1218 GMT on 05/20/2024:
     

Click on the graph icon in the table below to see a time series plot of the last five days of that observation.

5-day plot - Wind Direction Wind Direction (WDIR): W ( 280 deg true )
5-day plot - Wind Speed Wind Speed (WSPD): 1.9 kts
5-day plot - Wind Gust Wind Gust (GST): 4.1 kts
5-day plot - Atmospheric Pressure Atmospheric Pressure (PRES):29.98 in
5-day plot - Air Temperature Air Temperature (ATMP): 85.5 °F
5-day plot - Water Temperature Water Temperature (WTMP): 86.9 °F
5-day plot - Wind Speed at 10 Meters Wind Speed at 10 meters (WSPD10M): 1.9 kts
5-day plot - Wind Speed at 20 Meters Wind Speed at 20 meters (WSPD20M): 1.9 kts
5-day plot -  Wind Speed, Wind Gust and Atmospheric Pressure Combined plot of Wind Speed, Gust, and Air Pressure
NOS Water Level Observation Network Water Level
Previous observations
TIME
(AST)
5-day plot - Wind Direction
WDIR
 
5-day plot - Wind Speed
WSPD
kts
5-day plot - Wind Gust
GST
kts
5-day plot - Wave Height
WVHT
ft
5-day plot - Dominant Wave Period
DPD
sec
5-day plot - Average Wave Period
APD
sec
5-day plot - Mean Wave Direction
MWD
 
5-day plot - Atmospheric Pressure
PRES
in
5-day plot - Pressure Tendency
PTDY
in
5-day plot - Air Temperature
ATMP
°F
5-day plot - Water Temperature
WTMP
°F
5-day plot - Dew Point
DEWP
°F
5-day plot - Salinity
SAL
psu
5-day plot - Visibility
VIS
nmi
5-day plot - Tide (above MLLW)
TIDE
ft
2024-05-20 08:12 amNNW 2.9 2.9----29.98- 85.1 86.9----
2024-05-20 08:06 am N 1.0 2.9----29.98- 85.5 86.7----
2024-05-20 08:00 am N 1.0 2.9----29.98+0.05 85.1 86.7----
2024-05-20 07:54 am NE 1.0 1.9----29.98- 85.1 86.7----
2024-05-20 07:48 am N 1.0 1.9----29.98- 84.4 86.7----
2024-05-20 07:42 amNNW 1.9 2.9----29.98- 83.3 86.7----
2024-05-20 07:36 amNNW 2.9 2.9----29.98- 82.8 86.7----
2024-05-20 07:30 am N 2.9 4.1----29.98- 82.4 86.7----
2024-05-20 07:24 amNNW 1.9 2.9----29.98- 83.1 86.7----
2024-05-20 07:18 amWNW 1.0 1.9----29.98- 82.6 86.7----
2024-05-20 07:12 am NW 1.9 2.9----29.98- 82.0 86.7----
2024-05-20 07:06 am N 1.0 1.9----29.97- 81.7 86.7----
2024-05-20 07:00 amNNW 1.9 1.9----29.97+0.04 81.0 86.7----
2024-05-20 06:54 am- 0.0 0.0----29.96- 81.0 86.7----
2024-05-20 06:48 am- 0.0 1.9----29.96- 80.2 86.7----
2024-05-20 06:42 am- 0.0 1.0----29.96- 79.9 86.7----
2024-05-20 06:36 amNNW 1.0 1.0----29.96- 79.0 86.7----
2024-05-20 06:30 am- 0.0 1.0----29.95- 78.6 86.7----
2024-05-20 06:24 am- 0.0 1.0----29.95- 79.0 86.7----
2024-05-20 06:18 am- 0.0 4.1----29.95- 79.0 86.7----
2024-05-20 06:12 am E 2.9 2.9----29.95- 79.7 86.7----
2024-05-20 06:06 amESE 1.9 2.9----29.94- 80.2 86.7----
2024-05-20 06:00 amENE 1.9 4.1----29.94+0.00 79.7 86.7----
2024-05-20 05:54 amENE 1.9 4.1----29.93- 79.0 86.7----
2024-05-20 05:48 am E 2.9 4.1----29.93- 78.3 86.5----
2024-05-20 05:42 amESE 1.9 2.9----29.94- 78.4 86.5----
2024-05-20 05:36 amESE 2.9 4.1----29.93- 78.4 86.7----
2024-05-20 05:30 amESE 4.1 5.1----29.94- 79.2 86.7----
2024-05-20 05:24 amESE 2.9 4.1----29.93- 79.0 86.7----
2024-05-20 05:18 am E 2.9 4.1----29.93- 78.3 86.7----
2024-05-20 05:12 amENE 4.1 5.1----29.93- 77.7 86.7----
2024-05-20 05:06 amESE 5.1 6.0----29.93- 77.9 86.7----
2024-05-20 05:00 amESE 4.1 5.1----29.93-0.01 78.4 86.9----
2024-05-20 04:54 amESE 4.1 5.1----29.93- 79.3 86.9----
2024-05-20 04:48 amESE 1.9 2.9----29.93- 79.7 86.9----
2024-05-20 04:42 am- 0.0 1.0----29.93- 79.2 86.9----
2024-05-20 04:36 am- 0.0 1.0----29.94- 79.2 86.9----
2024-05-20 04:30 am N 1.0 2.9----29.93- 79.3 86.9----
2024-05-20 04:24 am- 0.0 1.9----29.93- 79.2 87.1----
2024-05-20 04:18 am N 1.9 4.1----29.93- 79.3 87.1----
2024-05-20 04:12 amESE 1.9 4.1----29.93- 79.7 87.1----
2024-05-20 04:06 am E 1.9 6.0----29.93- 79.3 87.1----
2024-05-20 04:00 amENE 1.9 6.0----29.93-0.04 79.3 86.7----
2024-05-20 03:54 amENE 1.9 6.0----29.93- 80.4 86.7----
2024-05-20 03:48 am- 0.0 1.9----29.93- 80.8 86.7----
2024-05-20 03:42 am E 1.0 1.0----29.93- 80.2 86.9----
2024-05-20 03:36 amNNE 1.9 4.1----29.93- 79.9 86.9----
2024-05-20 03:30 am E 4.1 5.1----29.93- 79.3 86.7----
2024-05-20 03:24 am E 4.1 5.1----29.93- 79.9 86.7----
2024-05-20 03:18 amENE 1.9 4.1----29.93- 80.4 86.7----
2024-05-20 03:12 am E 2.9 4.1----29.93- 80.2 86.7----
2024-05-20 03:06 amENE 1.9 4.1----29.93- 79.7 86.7----
2024-05-20 03:00 amENE 1.0 2.9----29.94-0.05 79.2 86.7----
2024-05-20 02:54 am E 2.9 5.1----29.94- 78.8 86.7----
2024-05-20 02:48 amESE 2.9 4.1----29.94- 79.2 86.7----
2024-05-20 02:42 amESE 1.9 2.9----29.94- 79.5 86.7----
2024-05-20 02:36 am E 1.9 7.0----29.94- 79.2 86.7----
2024-05-20 02:30 am- 0.0 1.9----29.94- 79.7 86.9----
2024-05-20 02:24 am- 0.0 1.9----29.94- 79.7 87.1----
2024-05-20 02:18 amENE 1.9 4.1----29.94- 79.9 87.3----
2024-05-20 02:12 am E 2.9 6.0----29.94- 79.9 87.3----
2024-05-20 02:06 am E 4.1 6.0----29.95- 79.7 87.4----
2024-05-20 02:00 am E 2.9 4.1----29.95-0.05 79.9 87.4----
2024-05-20 01:54 am E 2.9 5.1----29.95- 79.9 87.4----
2024-05-20 01:48 am E 2.9 6.0----29.96- 79.7 87.6----
2024-05-20 01:42 amESE 4.1 6.0----29.96- 79.5 87.8----
2024-05-20 01:36 amESE 4.1 5.1----29.96- 80.4 87.8----
2024-05-20 01:30 am E 1.0 1.9----29.96- 80.6 87.8----
2024-05-20 01:24 am E 2.9 4.1----29.97- 80.4 87.6----
2024-05-20 01:18 am-------29.97-- 88.0----
2024-05-20 01:12 am-------29.97-- 88.0----
2024-05-20 01:06 am-------29.97-- 88.0----
2024-05-20 01:00 am- 0.0 1.9----29.97-0.03 80.8 88.0----
2024-05-20 12:54 amNNE 1.9 4.1----29.97- 81.0 88.2----
2024-05-20 12:48 am E 2.9 4.1----29.97- 80.8 88.2----
2024-05-20 12:42 am E 2.9 5.1----29.97- 81.0 88.2----
2024-05-20 12:36 amESE 2.9 4.1----29.98- 81.0 88.2----
2024-05-20 12:30 amENE 1.0 5.1----29.98- 81.0 88.0----
2024-05-20 12:24 am E 5.1 5.1----29.98- 81.0 88.0----
2024-05-20 12:18 amESE 2.9 4.1----29.98- 81.9 88.2----
2024-05-20 12:12 amESE 2.9 4.1----29.99- 82.2 88.2----
2024-05-20 12:06 am E 1.9 4.1----29.99- 82.0 88.2----
2024-05-20 12:00 am E 2.9 4.1----29.99+0.00 82.4 88.2----
2024-05-19 11:54 pm- 0.0 2.9----29.99- 82.6 88.2----
2024-05-19 11:48 pm- 0.0 2.9----29.99- 82.2 88.2----
2024-05-19 11:42 pmNNW 2.9 2.9----30.00- 82.4 88.2----
2024-05-19 11:36 pm- 0.0 4.1----30.00- 83.3 88.2----
2024-05-19 11:30 pmNNW 1.9 4.1----30.00- 83.1 88.2----
2024-05-19 11:24 pmENE 1.9 2.9----30.00- 83.7 88.2----
2024-05-19 11:18 pm NE 1.9 1.9----29.99-- 88.2----
2024-05-19 11:12 pm N 1.9 2.9----30.00-- 88.2----
2024-05-19 11:06 pm N 1.9 2.9----30.00-- 88.2----
2024-05-19 11:00 pm N 1.9 2.9----30.00+0.03 83.5 88.2----
2024-05-19 10:54 pmENE 1.0 1.9----30.00- 84.2 88.2----
2024-05-19 10:48 pm E 1.0 2.9----30.00- 84.2 88.2----
2024-05-19 10:42 pm NE 1.0 4.1----30.00- 84.2 88.2----
2024-05-19 10:36 pmESE 1.9 1.9----30.00- 84.2 88.2----
2024-05-19 10:30 pm- 0.0 1.9----30.00- 84.6 88.2----
2024-05-19 10:24 pm NE 1.9 2.9----30.00- 84.6 88.2----
2024-05-19 10:18 pm NE 1.0 2.9----30.00- 84.6 88.2----
2024-05-19 10:12 pm E 1.0 1.9----30.00- 84.4 88.2----
2024-05-19 10:06 pm E 1.9 4.1----30.00- 84.6 88.3----
2024-05-19 10:00 pm- 0.0 2.9----30.00- 84.9 88.3----
2024-05-19 09:54 pm E 2.9 4.1----29.99- 84.9 88.3----
2024-05-19 09:48 pm- 0.0 1.0----30.00- 84.6 88.3----
2024-05-19 09:42 pm NE 1.0 4.1----29.99- 84.9 88.3----
2024-05-19 09:36 pmENE 2.9 4.1----29.99- 84.9 88.3----
2024-05-19 09:30 pm E 2.9 4.1----29.99-- 88.3----
2024-05-19 09:24 pm E 2.9 5.1----29.99-- 88.3----
2024-05-19 09:18 pmENE 2.9 5.1----29.99-- 88.2----
2024-05-19 09:12 pm E 4.1 5.1----29.99-- 88.2----
2024-05-19 09:06 pm E 5.1 6.0----29.99-- 88.2----
2024-05-19 09:00 pmENE 1.0 5.1----29.98+0.05- 88.2----
2024-05-19 08:54 pm E 5.1 6.0----29.98-- 88.0----
2024-05-19 08:48 pmENE 2.9 4.1----29.98- 84.7 88.0----
2024-05-19 08:42 pm NE 1.9 4.1----29.99- 84.9 88.2----
2024-05-19 08:36 pm E 4.1 6.0----29.98- 85.5 88.2----
2024-05-19 08:30 pm E 2.9 6.0----29.98- 85.5 88.2----
2024-05-19 08:24 pm E 4.1 6.0----29.98- 85.5 88.2----
2024-05-19 08:18 pm---------- 88.2----
2024-05-19 08:12 pm---------- 88.2----
2024-05-19 08:06 pm---------- 88.2----
2024-05-19 08:00 pm N 2.9 4.1----29.97+0.05- 88.2----
2024-05-19 07:54 pm SE 2.9 6.0----29.97-- 88.3----
2024-05-19 07:48 pm SE 5.1 6.0------------
2024-05-19 07:42 pmESE 1.9 2.9------------
2024-05-19 07:36 pm NE 2.9 5.1------------
2024-05-19 07:30 pmESE 2.9 5.1----29.96- 86.0 88.5----
2024-05-19 07:24 pm E 4.1 6.0----29.96- 86.5 88.5----
2024-05-19 07:18 pmESE 7.0 9.9----29.96- 86.2 88.5----
2024-05-19 07:12 pm SE 7.0 9.9----29.96- 86.4 88.5----
2024-05-19 07:06 pmESE 7.0 8.9----29.96- 86.5 88.5----
2024-05-19 07:00 pmESE 6.0 8.9------- 88.5----
2024-05-19 06:54 pm E 5.1 8.0------- 88.7----
2024-05-19 06:48 pmESE 4.1 5.1----29.95-- 88.3----
2024-05-19 06:42 pm SE 5.1 8.0----29.95-- 88.5----
2024-05-19 06:36 pm SE 7.0 11.1----29.95-- 88.3----
2024-05-19 06:30 pm SE 8.0 11.1----29.94-- 88.3----
2024-05-19 06:24 pmSSE 9.9 12.0----29.94-- 88.5----
2024-05-19 06:18 pm-------29.94- 87.4 88.3----
2024-05-19 06:12 pm-------29.94- 87.6 88.3----
2024-05-19 06:06 pm-------29.94- 87.8 88.3----
2024-05-19 06:00 pm SE 8.0 11.1----29.94+0.00 88.0 88.3----
2024-05-19 05:54 pm SE 8.0 11.1----29.93- 88.0 88.2----
2024-05-19 05:48 pm SE 8.9 11.1----29.93- 88.2 88.3----
2024-05-19 05:42 pmSSE 6.0 8.9----29.93- 88.2 88.3----
2024-05-19 05:36 pmSSE 8.0 12.0----29.93- 88.3 88.3----
2024-05-19 05:30 pmSSE 8.0 12.0----29.93- 88.5 88.3----
2024-05-19 05:24 pm SE 8.9 12.0----29.93- 88.7 88.3----
2024-05-19 05:18 pm SE 11.1 13.0----29.92- 88.5 88.2----
2024-05-19 05:12 pmSSE 8.9 13.0----29.92- 88.7 88.2----
2024-05-19 05:06 pm SE 9.9 13.0----29.92- 88.7 88.2----
2024-05-19 05:00 pmSSE 6.0 11.1----29.92-0.05 88.9 88.2----
2024-05-19 04:54 pmSSE 8.0 11.1----29.92- 88.7 88.2----
2024-05-19 04:48 pmSSE 8.9 11.1----29.92- 88.2 88.2----
2024-05-19 04:42 pmWSW 4.1 7.0----29.92- 87.6 88.2----
2024-05-19 04:36 pmWSW 2.9 6.0----29.92- 87.6 88.0----
2024-05-19 04:30 pm SW 5.1 8.9----29.92- 88.2 88.2----
2024-05-19 04:24 pm W 7.0 8.0----29.92- 87.1 88.0----
2024-05-19 04:18 pm SW 5.1 6.0----29.93- 87.3 88.0----
2024-05-19 04:12 pmWNW 5.1 8.0----29.93- 86.9 88.2----
2024-05-19 04:06 pm W 7.0 8.9----29.93- 86.7 88.2----
2024-05-19 04:00 pmWNW 2.9 6.0----29.93-0.06- 88.2----
2024-05-19 03:54 pm NW 5.1 8.0----29.93-- 88.2----
2024-05-19 03:48 pm W 6.0 8.0----29.93-- 88.2----
2024-05-19 03:42 pm W 5.1 9.9----29.93-- 88.2----
2024-05-19 03:36 pmWNW 4.1 7.0----29.93-- 88.2----
2024-05-19 03:30 pm W 5.1 7.0----29.93- 87.8 88.2----
2024-05-19 03:24 pm W 5.1 8.9----29.93- 87.1 88.2----
2024-05-19 03:18 pm W 7.0 11.1----29.93- 87.3 88.2----
2024-05-19 03:12 pmWNW 2.9 8.0----29.94- 88.5 88.2----
2024-05-19 03:06 pm W 7.0 9.9----29.94- 87.4 88.2----
2024-05-19 03:00 pm W 7.0 8.9----29.94-0.06- 88.2----
2024-05-19 02:54 pm W 8.0 9.9----29.94-- 88.2----
2024-05-19 02:48 pm W 8.0 9.9----29.94- 86.7 88.2----
2024-05-19 02:42 pm W 8.0 11.1----29.95- 87.3 88.0----
2024-05-19 02:36 pm W 7.0 8.9----29.95- 86.7 88.0----
2024-05-19 02:30 pm W 7.0 8.9----29.95- 86.7 88.0----
2024-05-19 02:24 pm W 7.0 8.9----29.96- 86.9 88.2----
2024-05-19 02:18 pm W 7.0 8.9----29.96- 87.1 88.2----
2024-05-19 02:12 pm W 7.0 8.0----29.96- 86.7 88.2----
2024-05-19 02:06 pm W 6.0 8.9----29.97- 86.9 88.2----
2024-05-19 02:00 pm W 7.0 8.0----29.97-0.05 86.7 88.0----
2024-05-19 01:54 pm W 7.0 8.9----29.97- 86.5 88.0----
2024-05-19 01:48 pm W 8.9 9.9----29.97- 86.7 88.0----
2024-05-19 01:42 pm W 6.0 9.9----29.97- 87.4 88.2----
2024-05-19 01:36 pm W 8.9 9.9----29.97- 86.5 88.2----
2024-05-19 01:30 pm W 7.0 11.1----29.98- 86.7 88.2----
2024-05-19 01:24 pm W 8.9 9.9----29.98- 86.7 88.0----
2024-05-19 01:18 pm W 8.9 11.1----29.98-- 88.0----
2024-05-19 01:12 pm W 9.9 12.0----29.98-- 88.2----
2024-05-19 01:06 pm W 7.0 11.1----29.99-- 88.0----
2024-05-19 01:00 pm W 8.0 12.0----29.99-0.03- 88.0----
2024-05-19 12:54 pm W 9.9 11.1----29.99-- 88.2----
2024-05-19 12:48 pm W 9.9 12.0----29.99- 86.7 88.2----
2024-05-19 12:42 pm W 8.9 11.1----29.99- 87.4 88.0----
2024-05-19 12:36 pm W 8.9 11.1----30.00- 87.1 87.8----
2024-05-19 12:30 pm W 9.9 12.0----30.00- 86.4 87.8----
2024-05-19 12:24 pm W 11.1 13.0----30.00- 86.4 87.8----
2024-05-19 12:18 pm W 11.1 12.0----30.01- 86.7 87.8----
2024-05-19 12:12 pm W 9.9 12.0----30.01- 86.9 87.8----
2024-05-19 12:06 pm W 8.0 11.1----30.01- 87.4 87.4----
2024-05-19 12:00 pm W 9.9 11.1----30.01+0.00 86.9 87.3----
2024-05-19 11:54 am W 8.9 11.1----30.01- 87.1 87.3----
2024-05-19 11:48 am W 8.0 11.1----30.01- 87.4 87.6----
2024-05-19 11:42 am W 8.0 9.9----30.01- 87.1 88.2----
2024-05-19 11:36 am W 7.0 9.9----30.01- 87.3 87.3----
2024-05-19 11:30 am W 8.0 9.9----30.01- 86.9 87.3----
2024-05-19 11:24 am W 8.0 8.9----30.01- 86.9 87.3----
2024-05-19 11:18 am-------30.01- 87.6 87.3----
2024-05-19 11:12 am-------30.01- 86.7 87.3----
2024-05-19 11:06 am-------30.01- 87.3 87.3----
2024-05-19 11:00 am-------30.02+0.01 88.7 87.3----
2024-05-19 10:54 am-------30.02- 87.6 87.3----
2024-05-19 10:48 am-------30.02- 86.7 87.3----
2024-05-19 10:42 am-------30.02- 87.1 87.3----
2024-05-19 10:36 am-------30.03- 86.9 87.3----
2024-05-19 10:30 amWNW 2.9 8.0----30.03- 88.2 87.3----
2024-05-19 10:24 am W 6.0 8.0----30.03- 87.1 87.3----
2024-05-19 10:18 am W 6.0 7.0----30.02- 86.4 87.3----
2024-05-19 10:12 am W 6.0 7.0----30.02- 86.2 87.3----
2024-05-19 10:06 am W 6.0 7.0----30.03- 86.0 87.3----
2024-05-19 10:00 am W 5.1 6.0----30.02+0.02- 87.3----
2024-05-19 09:54 am W 5.1 5.1----30.02-- 87.3----
2024-05-19 09:48 am-------30.02- 86.4 87.3----
2024-05-19 09:42 am-------30.02- 88.0 87.4----
2024-05-19 09:36 am-------30.02- 88.5 87.3----
2024-05-19 09:30 am SW 4.1 4.1----30.02-- 87.4----
2024-05-19 09:24 am- 0.0 2.9----30.02-- 87.1----
2024-05-19 09:18 amESE 1.0 4.1----30.02-- 86.7----
2024-05-19 09:12 am NE 4.1 5.1----30.02-- 86.5----
2024-05-19 09:06 amNNW 1.9 4.1----30.01-- 86.5----
2024-05-19 09:00 am N 2.9 5.1----30.01+0.03- 86.5----
2024-05-19 08:54 am N 1.0 4.1----30.01-- 86.5----
2024-05-19 08:48 amNNE 1.9 4.1----30.01- 86.9 86.5----
2024-05-19 08:42 am NE 2.9 5.1----30.01- 86.2 86.5----
2024-05-19 08:36 am NE 2.9 5.1----30.01- 86.0 86.5----
2024-05-19 08:30 am-------30.01- 85.8-----
2024-05-19 08:24 am-------30.01- 85.3-----
2024-05-19 08:18 amWNW 1.9 2.9----30.01-- 86.4----
2024-05-19 08:12 amWSW 2.9 2.9----30.01-- 86.4----
2024-05-19 08:06 amWSW 1.9 2.9----30.01-- 86.4----
2024-05-19 08:00 am- 0.0 1.0----30.01+0.03 86.4 86.4----
2024-05-19 07:54 am- 0.0 2.9----30.01- 84.2 86.4----